• In Deutschland
  • Länderverzeichnis
  • Für 7 Tage
  • Wassertemperatur
  • Satellitenkarten
  • Wetterkarte
  • Widgets
  • user-avatar
    Anmelden

    Stündliche Wetter Novosretenka

    Heute, 22 April, Sonntag

    Zeit Temperatur Niederschläge Wind Luftdruck Luftfeuchtigkeit
    00:00 +6°C° 0 mm 1 m/S 703 mmHg 67%
    01:00 +5°C° 0 mm 1 m/S 703 mmHg 69%
    02:00 +5°C° 0 mm 1 m/S 704 mmHg 71%
    03:00 +5°C° 0 mm 1 m/S 704 mmHg 72%
    04:00 +4°C° 0 mm 1 m/S 704 mmHg 73%
    05:00 +6°C° 0 mm 1 m/S 704 mmHg 67%
    06:00 +8°C° 0 mm 1 m/S 704 mmHg 60%
    07:00 +10°C° 0 mm 1 m/S 704 mmHg 51%
    08:00 +12°C° 0 mm 1 m/S 704 mmHg 44%
    09:00 +14°C° 0 mm 2 m/S 704 mmHg 36%
    10:00 +16°C° 0 mm 2 m/S 704 mmHg 28%
    11:00 +17°C° 0 mm 3 m/S 704 mmHg 25%
    12:00 +18°C° 0 mm 3 m/S 703 mmHg 22%
    13:00 +18°C° 0 mm 3 m/S 703 mmHg 21%
    14:00 +18°C° 0 mm 3 m/S 703 mmHg 21%
    15:00 +18°C° 0 mm 3 m/S 703 mmHg 21%
    16:00 +18°C° 0 mm 3 m/S 703 mmHg 20%
    17:00 +16°C° 0 mm 3 m/S 703 mmHg 24%
    18:00 +14°C° 0 mm 2 m/S 702 mmHg 28%
    19:00 +12°C° 0 mm 2 m/S 702 mmHg 32%
    20:00 +10°C° 0 mm 2 m/S 702 mmHg 34%
    21:00 +9°C° 0 mm 2 m/S 703 mmHg 36%
    22:00 +8°C° 0 mm 2 m/S 703 mmHg 38%
    23:00 +8°C° 0 mm 2 m/S 703 mmHg 39%

    Morgen, 23 April, Montag

    Zeit Temperatur Niederschläge Wind Luftdruck Luftfeuchtigkeit
    00:00 +7°C° 0 mm 2 m/S 703 mmHg 41%
    01:00 +5°C° 0 mm 3 m/S 703 mmHg 42%
    02:00 +5°C° 0 mm 3 m/S 703 mmHg 43%
    03:00 +5°C° 0 mm 3 m/S 703 mmHg 44%
    04:00 +5°C° 0 mm 3 m/S 703 mmHg 45%
    05:00 +6°C° 0 mm 4 m/S 703 mmHg 42%
    06:00 +8°C° 0 mm 4 m/S 703 mmHg 39%
    07:00 +10°C° 0 mm 5 m/S 703 mmHg 36%
    08:00 +13°C° 0 mm 6 m/S 703 mmHg 32%
    09:00 +14°C° 0 mm 6 m/S 703 mmHg 29%
    10:00 +16°C° 0 mm 6 m/S 703 mmHg 25%
    11:00 +17°C° 0 mm 6 m/S 702 mmHg 23%
    12:00 +19°C° 0 mm 6 m/S 702 mmHg 22%
    13:00 +20°C° 0 mm 5 m/S 702 mmHg 20%
    14:00 +20°C° 0 mm 5 m/S 701 mmHg 20%
    15:00 +21°C° 0 mm 5 m/S 701 mmHg 20%
    16:00 +21°C° 0 mm 4 m/S 701 mmHg 20%
    17:00 +19°C° 0 mm 4 m/S 700 mmHg 24%
    18:00 +16°C° 0 mm 3 m/S 700 mmHg 29%
    19:00 +14°C° 0 mm 2 m/S 700 mmHg 34%
    20:00 +13°C° 0 mm 2 m/S 700 mmHg 36%
    21:00 +12°C° 0 mm 2 m/S 700 mmHg 39%
    22:00 +10°C° 0 mm 2 m/S 700 mmHg 41%
    23:00 +10°C° 0 mm 2 m/S 700 mmHg 43%

    übermorgen, 24 April, Dienstag

    Zeit Temperatur Niederschläge Wind Luftdruck Luftfeuchtigkeit
    00:00 +9°C° 0 mm 2 m/S 700 mmHg 44%
    01:00 +9°C° 0 mm 2 m/S 700 mmHg 45%
    02:00 +8°C° 0 mm 2 m/S 699 mmHg 46%
    03:00 +8°C° 0 mm 2 m/S 699 mmHg 47%
    04:00 +7°C° 0 mm 2 m/S 699 mmHg 48%
    05:00 +9°C° 0 mm 3 m/S 699 mmHg 44%
    06:00 +11°C° 0 mm 3 m/S 699 mmHg 40%
    07:00 +13°C° 0 mm 3 m/S 698 mmHg 35%
    08:00 +16°C° 0 mm 3 m/S 698 mmHg 30%
    09:00 +18°C° 0 mm 4 m/S 698 mmHg 26%
    10:00 +21°C° 0 mm 4 m/S 697 mmHg 21%
    11:00 +22°C° 0 mm 5 m/S 697 mmHg 19%
    12:00 +23°C° 0 mm 5 m/S 696 mmHg 16%
    13:00 +26°C° 0 mm 5 m/S 696 mmHg 14%
    14:00 +26°C° 0 mm 5 m/S 695 mmHg 14%
    15:00 +26°C° 0 mm 5 m/S 695 mmHg 15%
    16:00 +26°C° 0 mm 5 m/S 694 mmHg 15%
    17:00 +23°C° 0 mm 4 m/S 694 mmHg 19%
    18:00 +20°C° 0 mm 4 m/S 693 mmHg 22%
    19:00 +18°C° 0 mm 3 m/S 693 mmHg 26%
    20:00 +17°C° 0 mm 2 m/S 693 mmHg 28%
    21:00 +16°C° 0 mm 2 m/S 693 mmHg 30%
    22:00 +14°C° 0 mm 2 m/S 693 mmHg 32%
    23:00 +13°C° 0 mm 2 m/S 693 mmHg 33%

    25 April, Mittwoch

    Zeit Temperatur Niederschläge Wind Luftdruck Luftfeuchtigkeit
    00:00 +13°C° 0 mm 2 m/S 693 mmHg 35%
    01:00 +12°C° 0 mm 1 m/S 693 mmHg 36%
    02:00 +10°C° 0 mm 2 m/S 693 mmHg 40%
    03:00 +9°C° 0 mm 2 m/S 694 mmHg 44%
    04:00 +9°C° 0 mm 2 m/S 694 mmHg 49%
    05:00 +9°C° 0 mm 3 m/S 695 mmHg 54%
    06:00 +10°C° 0 mm 3 m/S 695 mmHg 59%
    07:00 +11°C° 0 mm 4 m/S 696 mmHg 64%
    08:00 +12°C° 0 mm 4 m/S 696 mmHg 57%
    09:00 +13°C° 0 mm 4 m/S 696 mmHg 50%
    10:00 +14°C° 0 mm 5 m/S 697 mmHg 44%
    11:00 +14°C° 0 mm 5 m/S 697 mmHg 42%
    12:00 +15°C° 0 mm 5 m/S 697 mmHg 41%
    13:00 +15°C° 0 mm 6 m/S 697 mmHg 40%
    14:00 +15°C° 0 mm 5 m/S 696 mmHg 39%
    15:00 +16°C° 0 mm 5 m/S 696 mmHg 38%
    16:00 +17°C° 0 mm 4 m/S 696 mmHg 37%
    17:00 +14°C° 0 mm 3 m/S 696 mmHg 42%
    18:00 +13°C° 0 mm 2 m/S 696 mmHg 47%
    19:00 +12°C° 0 mm 1 m/S 696 mmHg 52%
    20:00 +11°C° 0 mm 1 m/S 696 mmHg 55%
    21:00 +10°C° 0 mm 1 m/S 696 mmHg 57%
    22:00 +9°C° 0 mm 1 m/S 697 mmHg 60%
    23:00 +8°C° 0 mm 1 m/S 697 mmHg 62%

    26 April, Donnerstag

    Zeit Temperatur Niederschläge Wind Luftdruck Luftfeuchtigkeit
    00:00 +8°C° 0 mm 1 m/S 697 mmHg 63%
    01:00 +8°C° 0 mm 1 m/S 696 mmHg 64%
    02:00 +8°C° 0 mm 1 m/S 696 mmHg 63%
    03:00 +8°C° 0 mm 1 m/S 696 mmHg 62%
    04:00 +7°C° 0 mm 2 m/S 696 mmHg 62%
    05:00 +10°C° 0 mm 1 m/S 697 mmHg 57%
    06:00 +11°C° 0 mm 1 m/S 697 mmHg 52%
    07:00 +13°C° 0 mm 1 m/S 697 mmHg 47%
    08:00 +15°C° 0 mm 1 m/S 697 mmHg 43%
    09:00 +17°C° 0 mm 2 m/S 697 mmHg 38%
    10:00 +19°C° 0 mm 2 m/S 697 mmHg 34%
    11:00 +20°C° 0 mm 2 m/S 697 mmHg 31%
    12:00 +21°C° 0 mm 2 m/S 697 mmHg 29%
    13:00 +22°C° 0 mm 3 m/S 696 mmHg 27%
    14:00 +23°C° 0 mm 2 m/S 696 mmHg 28%
    15:00 +23°C° 0 mm 2 m/S 696 mmHg 29%
    16:00 +23°C° 0 mm 2 m/S 696 mmHg 30%
    17:00 +20°C° 0 mm 2 m/S 696 mmHg 37%
    18:00 +18°C° 0 mm 3 m/S 696 mmHg 45%
    19:00 +16°C° 0 mm 3 m/S 696 mmHg 52%
    20:00 +14°C° 0 mm 3 m/S 696 mmHg 59%
    21:00 +12°C° 0 mm 3 m/S 696 mmHg 66%
    22:00 +12°C° 0 mm 2 m/S 696 mmHg 72%
    23:00 +10°C° 0 mm 3 m/S 696 mmHg 76%

    27 April, Freitag

    Zeit Temperatur Niederschläge Wind Luftdruck Luftfeuchtigkeit
    00:00 +10°C° 0 mm 3 m/S 696 mmHg 80%
    01:00 +9°C° 0 mm 3 m/S 696 mmHg 83%
    02:00 +8°C° 0 mm 3 m/S 696 mmHg 82%
    03:00 +8°C° 0 mm 3 m/S 697 mmHg 81%
    04:00 +7°C° 0 mm 3 m/S 698 mmHg 80%
    05:00 +8°C° 0,1 mm 3 m/S 698 mmHg 77%
    06:00 +8°C° 0,1 mm 3 m/S 699 mmHg 74%
    07:00 +8°C° 0,1 mm 2 m/S 699 mmHg 71%
    08:00 +10°C° 0 mm 2 m/S 699 mmHg 60%
    09:00 +12°C° 0 mm 3 m/S 699 mmHg 48%
    10:00 +14°C° 0 mm 3 m/S 700 mmHg 37%
    11:00 +16°C° 0 mm 3 m/S 699 mmHg 32%
    12:00 +17°C° 0 mm 3 m/S 699 mmHg 28%
    13:00 +18°C° 0 mm 3 m/S 699 mmHg 23%
    14:00 +18°C° 0 mm 3 m/S 699 mmHg 23%
    15:00 +18°C° 0 mm 3 m/S 698 mmHg 23%
    16:00 +18°C° 0 mm 3 m/S 698 mmHg 22%
    17:00 +16°C° 0 mm 3 m/S 698 mmHg 27%
    18:00 +14°C° 0 mm 2 m/S 698 mmHg 31%
    19:00 +12°C° 0 mm 2 m/S 698 mmHg 36%
    20:00 +12°C° 0 mm 2 m/S 698 mmHg 39%
    21:00 +10°C° 0 mm 2 m/S 698 mmHg 42%
    22:00 +10°C° 0 mm 1 m/S 698 mmHg 44%
    23:00 +10°C° 0 mm 1 m/S 698 mmHg 46%
    Mehr zeigen